Location: Alfortville
(48.8058°N, 2.4204°E)
Time: 13:43:21
(UTC+00:00)

Daily predictions for brighter satellites

Satellite Brightness Start Highest point End
(mag) Time Altitude Azimuth Time Altitude Azimuth Time Altitude Azimuth
PAYLOAD B 4.3 17:06:39 10° SSE 17:12:05 63° ENE 17:17:36 10° N
BREEZE M DEB (TANK) 4.4 17:10:19 10° W 17:13:57 55° S 17:33:56 10° ESE
Cosmos 1697 Rocket 3.7 17:11:00 10° SW 17:16:28 49° NW 17:21:59 10° NNE
CZ-2D R/B 3.3 17:18:28 10° SSE 17:22:15 57° ENE 17:26:05 10° N
Cosmos 1821 Rocket 4.0 17:17:06 10° S 17:23:28 76° E 17:29:48 10° NNE
Cosmos 1328 4.1 17:19:50 10° N 17:23:46 47° ENE 17:27:40 10° SSE
NOSS 2 (A) 4.3 17:22:41 10° NW 17:25:31 55° NE 17:28:00 10° SE
Cosmos 1544 Rocket 4.2 17:22:55 10° SSE 17:26:58 35° E 17:31:02 10° NNE
Cosmos 1844 Rocket 3.4 17:22:09 10° NNW 17:27:08 32° NE 17:32:04 10° ESE
NOSS 2-3 (E) 4.4 17:24:15 10° S 17:27:47 30° ESE 17:31:47 10° ENE
USA 215 3.3 17:22:20 10° NE 17:28:55 88° SSE 17:35:29 10° WSW
Cosmos 1908 3.4 17:26:03 10° SSW 17:29:55 80° W 17:33:47 10° N
Lacrosse 4 Rocket 1.8 17:28:15 10° NNW 17:32:26 47° NE 17:36:40 10° SE
Cosmos 1408 4.2 17:30:29 10° NNE 17:32:40 15° ENE 17:34:32 11° E
USA 229 DEB 4.5 17:27:41 10° SSE 17:32:55 28° ESE 17:38:24 10° ENE
USA 229 4.5 17:27:49 10° SSE 17:33:02 27° ESE 17:38:29 10° ENE
Cosmos 1934 Rocket 4.1 17:28:40 10° SSE 17:34:30 51° E 17:40:20 10° NNE
Cosmos 389 Rocket 4.0 17:32:43 10° SW 17:35:56 39° WNW 17:39:12 10° N
Meteor 2-10 Rocket 4.5 17:31:35 10° SE 17:36:10 27° E 17:40:36 10° NNE
Cosmos 1953 2.5 17:32:38 10° SSW 17:36:40 78° W 17:40:46 10° N
NOSS 8 (F) 4.5 17:35:51 10° SSW 17:39:09 48° SE 17:41:40 13° NE
Okean O Rocket 1.6 17:37:10 10° SSE 17:41:24 58° ENE 17:45:43 10° N
H-2A R/B 2.1 17:37:23 10° SSE 17:42:48 80° ENE 17:48:17 10° NNW
deb Chang Zheng 4 3.5 17:42:11 10° SSE 17:46:23 86° WSW 17:50:39 10° NNW
Cosmos 332 Rocket 4.3 17:42:09 10° S 17:46:37 37° ESE 17:51:05 10° NE
Cosmos 2278 4.1 17:41:35 10° SW 17:47:14 67° WNW 17:52:57 10° NNE
X-37B 2.1 17:45:35 10° WSW 17:48:07 27° SSW 17:50:32 11° SE
ATLAS 3B R/B 3.8 17:43:08 10° W 17:49:19 39° NNW 17:55:50 10° NE
Cosmos 1602 Rocket 4.0 17:46:19 10° N 17:50:25 39° ENE 17:54:28 10° SE
Cosmos 2278 Rocket 4.0 17:47:41 10° N 17:50:32 14° NNE 17:52:43 11° NE
Spot 2 4.4 17:47:46 10° SE 17:51:44 43° ENE 17:55:57 10° N
SL-8 R/B 3.7 17:47:44 10° WSW 17:52:31 77° SSE 17:56:02 18° E
ATLAS 5 CENTAUR R/B 2.4 17:50:19 10° WSW 17:54:08 46° NW 17:58:32 10° NE
NOSS 3-1 (A) 3.8 17:50:27 10° S 17:55:12 35° ESE 17:59:58 13° NE
COSMO-SKYMED 1 2.5 17:51:40 10° NNE 17:55:59 62° ESE 18:00:17 10° S
Okean 1-7 Rocket 3.6 17:53:14 10° N 17:57:41 88° W 18:02:08 10° S
Cosmos 1300 2.5 17:55:18 10° S 17:59:04 73° E 18:02:53 10° NNE
SL-16 R/B 2.2 17:53:53 10° SSW 17:59:28 65° ESE 18:05:06 10° NNE
Cosmos 1825 3.8 17:57:52 10° NNE 17:59:51 17° NE 17:59:51 17° NE
Cosmos 2123 Rocket 4.0 17:54:49 10° N 18:01:12 89° W 18:07:31 10° S
HJ-1C 4.2 18:00:34 24° E 18:01:23 28° ENE 18:04:14 10° N
USA 267 3.9 17:57:53 10° SE 18:04:17 57° SW 18:10:43 10° WNW
Okean-O 3.5 18:02:47 20° ESE 18:04:50 28° ENE 18:08:38 10° N
BREEZE-M R/B 2.5 18:02:56 10° W 18:06:29 78° SSW 18:09:11 21° ESE
CENTAUR R/B 4.2 18:01:00 10° NW 18:07:08 28° N 18:12:34 15° ENE
CZ-4 R/B 1.6 18:03:17 10° SE 18:07:09 46° ENE 18:11:07 10° N
IRAS Rocket 4.5 18:04:54 10° NNE 18:10:14 46° E 18:15:30 10° S
Cosmos 2322 Rocket 2.2 18:06:10 10° SSW 18:11:40 61° ESE 18:17:13 10° NNE
Cosmos 371 Rocket 3.4 18:08:01 10° SSW 18:12:53 80° WNW 18:17:49 10° NNE
Cosmos 1825 Rocket 4.3 18:09:09 10° N 18:12:58 29° ENE 18:13:46 28° E
NOSS 2-3 (D) 3.4 18:11:07 10° SSW 18:15:08 70° SE 18:18:26 19° NE
SJ-11-01 4.4 18:11:58 10° SSE 18:16:40 81° WSW 18:21:25 10° NNW
Cosmos 2251 Rocket 3.4 18:12:10 10° NNW 18:17:26 71° ENE 18:22:38 10° SSE
Cosmos 407 Rocket 4.1 18:12:48 10° N 18:17:47 38° ENE 18:20:05 26° ESE
Cosmos 1140 Rocket 4.0 18:13:49 10° N 18:18:38 37° ENE 18:20:32 28° E
Cosmos 2219 Rocket 4.0 18:14:56 10° SE 18:15:45 13° SE 18:15:45 13° SE
SL-08 RB Rocket 3.6 18:14:38 10° SSE 18:19:11 74° ENE 18:23:49 10° N
NOSS 3-1 (C) 3.2 18:13:56 10° SW 18:19:15 83° SE 18:25:08 12° NE
Cosmos 1844 3.8 18:13:56 10° NNW 18:19:41 59° ENE 18:23:55 18° SE
Cosmos 1758 Rocket 3.6 18:15:44 10° N 18:19:58 51° ENE 18:24:09 10° SSE
Cosmos 2360 Rocket 2.4 18:16:01 10° S 18:21:22 45° ESE 18:26:04 13° NE
Tiangong 3.0 18:21:24 10° WSW 18:23:53 21° S 18:24:40 19° SSE
Cosmos 2228 3.5 18:20:39 10° SSE 18:24:39 36° E 18:28:42 10° NNE
H-2A R/B 2.4 18:20:51 10° SSE 18:25:07 86° ENE 18:29:16 10° NNW
Cosmos 1626 Rocket 3.9 18:21:00 10° NNW 18:25:19 66° W 18:29:35 10° S
NOSS 2-3 (C) 3.5 18:23:37 10° SW 18:27:42 88° NW 18:30:51 21° NE
ARGOS 3.4 18:22:54 10° S 18:28:17 71° WSW 18:33:44 10° NNW
Cosmos 2333 Rocket 3.2 18:23:51 10° SSE 18:27:35 26° ESE 18:27:35 26° ESE
SWARM C 4.4 18:25:56 10° S 18:29:14 85° E 18:32:33 10° N
SWARM A 4.1 18:26:08 10° S 18:29:26 85° E 18:32:46 10° N
MetOp-A 4.3 18:26:08 19° SE 18:29:44 48° ENE 18:34:54 10° N
Feng Yun 1-1 Rocket 4.3 18:24:50 10° SSE 18:30:27 84° WSW 18:36:15 10° NNW
CZ-4B R/B 4.5 18:29:12 10° S 18:34:35 44° W 18:40:00 10° NNW
Meteor 1-4 Rocket 2.5 18:32:01 10° SSW 18:35:29 76° WNW 18:38:57 10° N
CZ-4C R/B 3.3 18:32:21 10° N 18:35:41 61° WNW 18:38:54 10° SSW
NOSS 8 (H) 4.2 18:32:44 10° SW 18:35:57 73° NW 18:36:17 63° N
Cosmos 220 Rocket 3.9 18:33:29 10° SSW 18:37:54 78° ESE 18:41:02 19° NNE
In-Cosmos 22 Rocket 4.0 18:32:56 10° NNW 18:38:18 89° W 18:43:37 10° S
Cosmos 2173 Rocket 4.3 18:33:57 10° SSE 18:39:36 39° E 18:45:22 10° NNE
Cosmos 44 3.5 18:34:50 10° SSW 18:40:11 64° ESE 18:42:36 32° NE
Cosmos 614 Rocket 4.3 18:40:39 10° NNW 18:45:42 66° WSW 18:50:45 10° S
Cosmos 1980 Rocket 4.3 18:41:27 10° W 18:46:02 24° NW 18:50:39 10° N
CZ-2C R/B 3.2 18:41:23 10° N 18:46:56 62° WNW 18:52:20 10° SSW
CSL-04 Debris 4.1 18:44:16 28° SE 18:47:04 62° ENE 18:52:26 10° N
Cosmos 1943 Rocket 4.3 18:45:57 10° N 18:47:27 11° NNE 18:47:58 11° NNE
Cosmos 2344 4.4 18:40:36 10° NW 18:49:40 81° SW 19:02:24 10° SSE
YAOGAN 1 2.9 18:45:27 10° S 18:49:45 66° WSW 18:54:04 10° NNW
Cosmos 1605 Rocket 4.2 18:43:40 10° SSW 18:49:57 74° W 18:56:22 10° N
H-2A R/B 1.9 18:51:01 61° SE 18:51:01 61° SE 18:54:46 10° S
Cosmos 1892 3.0 18:46:54 10° NNW 18:50:39 65° W 18:53:16 18° S
IRS-1C Rocket 4.0 18:45:30 10° SSE 18:50:46 87° ENE 18:56:05 10° NNW
CSL-04 Rocket 3.6 18:56:00 36° SE 18:58:18 70° ENE 19:03:51 10° N
Cosmos 1190 Rocket 3.9 18:56:44 10° NNW 19:01:54 60° ENE 19:02:03 59° ENE
Cosmos 1408 3.7 19:04:26 10° NNW 19:07:51 43° W 19:08:50 34° SW
Lacrosse 4 Rocket 3.7 19:07:21 10° WNW 19:10:52 24° WSW 19:14:25 10° SSW
Cosmos 1844 Rocket 3.3 19:05:53 10° NW 19:11:18 53° WSW 19:15:10 19° S
USA 215 3.8 19:08:28 28° NE 19:11:41 50° NNW 19:17:56 10° W
Orbus 7S? 4.3 19:07:27 10° NW 19:15:18 56° SW 19:16:02 49° S
Okean O Rocket 4.5 19:15:18 10° SW 19:18:08 17° W 19:21:00 10° NW
USA 229 DEB 3.7 19:16:46 10° SW 19:23:12 74° NW 19:26:39 32° NE
USA 229 3.7 19:16:53 10° SW 19:23:17 75° NW 19:26:42 32° NE
SL-8 R/B 4.3 19:30:15 10° W 19:33:59 54° W 19:33:59 54° W
Cosmos 2278 Rocket 3.0 19:30:36 10° NNW 19:34:34 38° NNE 19:34:34 38° NNE
Cosmos 1825 4.2 19:32:39 10° NNW 19:34:37 26° NW 19:34:37 26° NW
Cosmos 2346 Rocket 4.4 19:30:44 10° N 19:37:01 83° W 19:38:12 61° S
ATLAS 5 CENTAUR R/B 3.9 19:37:05 10° NW 19:39:58 17° NNW 19:40:45 16° N
Cosmos 2333 4.4 19:34:28 10° SSW 19:39:18 66° SW 19:39:18 66° SW
Okean-O 4.0 19:40:23 33° WSW 19:41:12 36° W 19:45:19 10° NNW
ATLAS 3B R/B 4.4 19:36:37 10° WNW 19:41:59 24° N 19:44:43 19° NNE
CZ-4 R/B 4.0 19:39:29 10° SW 19:42:23 19° W 19:45:20 10° NW
SL-16 R/B 4.0 19:39:12 10° WSW 19:44:02 28° NW 19:48:54 10° NNE
NOSS 3-1 (A) 3.9 19:40:24 10° WSW 19:45:46 53° NW 19:47:26 42° N
Resurs 01 Rocket 4.4 19:57:02 10° N 19:57:02 10° N 19:57:02 10° N
Cosmos 2322 Rocket 4.0 19:51:19 10° WSW 19:56:08 29° NW 20:00:35 12° N
CENTAUR R/B 3.5 19:52:16 10° NW 19:59:45 48° NE 19:59:45 48° NE
Cosmos 2219 Rocket 4.2 19:56:20 10° SSW 19:57:34 17° SSW 19:57:34 17° SSW
NOSS 3-2 (A) 4.3 19:57:27 10° NW 20:03:52 54° NNE 20:03:52 54° NNE
Cosmos 2360 Rocket 3.5 20:00:18 10° WSW 20:05:30 36° NW 20:07:53 26° N
Cosmos 2333 Rocket 3.7 20:06:51 10° SW 20:09:43 30° WSW 20:09:43 30° WSW
Cosmos 1943 Rocket 4.4 20:27:54 10° NNW 20:29:29 18° N 20:29:29 18° N
USA 215 4.4 20:55:49 37° NNW 20:55:49 37° NNW 21:00:11 10° WNW
CENTAUR R/B 4.4 21:43:00 10° NW 21:46:55 33° NW 21:46:55 33° NW
